Year,Month,Day,Hour,Minute,Value (Times are PST for windspeed in km/hr)
2014,05,25,00,00,7.90
2014,05,25,00,01,7.70
2014,05,25,00,02,7.00
2014,05,25,00,03,7.90
2014,05,25,00,04,9.10
2014,05,25,00,05,6.10
2014,05,25,00,06,7.20
2014,05,25,00,07,7.30
2014,05,25,00,08,8.10
2014,05,25,00,09,8.00
2014,05,25,00,10,7.30
2014,05,25,00,11,7.00
2014,05,25,00,12,6.40
2014,05,25,00,13,4.50
2014,05,25,00,14,6.10
2014,05,25,00,15,3.80
2014,05,25,00,16,6.90
2014,05,25,00,17,5.60
2014,05,25,00,18,5.20
2014,05,25,00,19,8.50
2014,05,25,00,20,8.60
2014,05,25,00,21,9.00
2014,05,25,00,22,8.40
2014,05,25,00,23,9.30
2014,05,25,00,24,7.00
2014,05,25,00,25,7.00
2014,05,25,00,26,6.00
2014,05,25,00,27,8.00
2014,05,25,00,28,7.30
2014,05,25,00,29,4.50
2014,05,25,00,30,1.60
2014,05,25,00,31,4.70
2014,05,25,00,32,5.00
2014,05,25,00,33,6.90
2014,05,25,00,34,8.40
2014,05,25,00,35,6.90
2014,05,25,00,36,5.10
2014,05,25,00,37,4.00
2014,05,25,00,38,3.30
2014,05,25,00,39,4.20
2014,05,25,00,40,5.00
2014,05,25,00,41,4.00
2014,05,25,00,42,2.00
2014,05,25,00,43,5.10
2014,05,25,00,44,5.50
2014,05,25,00,45,2.90
2014,05,25,00,46,4.30
2014,05,25,00,47,4.10
2014,05,25,00,48,6.70
2014,05,25,00,49,5.10
2014,05,25,00,50,4.80
2014,05,25,00,51,6.10
2014,05,25,00,52,4.80
2014,05,25,00,53,4.50
2014,05,25,00,54,7.70
2014,05,25,00,55,7.10
2014,05,25,00,56,6.60
2014,05,25,00,57,2.50
2014,05,25,00,58,7.10
2014,05,25,00,59,5.90
2014,05,25,01,00,5.10
2014,05,25,01,01,8.00
2014,05,25,01,02,10.10
2014,05,25,01,03,6.90
2014,05,25,01,04,7.00
2014,05,25,01,05,5.80
2014,05,25,01,06,7.30
2014,05,25,01,07,9.20
2014,05,25,01,08,10.90
2014,05,25,01,09,6.00
2014,05,25,01,10,9.80
2014,05,25,01,11,10.50
2014,05,25,01,12,5.10
2014,05,25,01,13,8.50
2014,05,25,01,14,9.90
2014,05,25,01,15,9.30
2014,05,25,01,16,8.90
2014,05,25,01,17,5.80
2014,05,25,01,18,9.50
2014,05,25,01,19,7.80
2014,05,25,01,20,10.20
2014,05,25,01,21,10.60
2014,05,25,01,22,10.10
2014,05,25,01,23,10.10
2014,05,25,01,24,10.10
2014,05,25,01,25,10.10
2014,05,25,01,26,12.90
2014,05,25,01,27,10.70
2014,05,25,01,28,10.00
2014,05,25,01,29,6.10
2014,05,25,01,30,8.60
2014,05,25,01,31,8.00
2014,05,25,01,32,11.40
2014,05,25,01,33,11.90
2014,05,25,01,34,13.90
2014,05,25,01,35,10.20
2014,05,25,01,36,10.90
2014,05,25,01,37,8.40
2014,05,25,01,38,11.00
2014,05,25,01,39,10.10
2014,05,25,01,40,10.00
2014,05,25,01,41,11.50
2014,05,25,01,42,10.60
2014,05,25,01,43,14.20
2014,05,25,01,44,16.20
2014,05,25,01,45,13.60
2014,05,25,01,46,14.30
2014,05,25,01,47,10.80
2014,05,25,01,48,12.60
2014,05,25,01,49,12.20
2014,05,25,01,50,12.40
2014,05,25,01,51,12.90
2014,05,25,01,52,11.50
2014,05,25,01,53,8.70
2014,05,25,01,54,7.10
2014,05,25,01,55,11.00
2014,05,25,01,56,7.00
2014,05,25,01,57,12.30
2014,05,25,01,58,8.90
2014,05,25,01,59,9.90
2014,05,25,02,00,8.40
2014,05,25,02,01,5.10
2014,05,25,02,02,4.40
2014,05,25,02,03,7.00
2014,05,25,02,04,6.00
2014,05,25,02,05,5.00
2014,05,25,02,06,6.90
2014,05,25,02,07,6.30
2014,05,25,02,08,5.80
2014,05,25,02,09,5.10
2014,05,25,02,10,4.10
2014,05,25,02,11,4.00
2014,05,25,02,12,9.40
2014,05,25,02,13,5.50
2014,05,25,02,14,9.00
2014,05,25,02,15,8.60
2014,05,25,02,16,8.80
2014,05,25,02,17,13.00
2014,05,25,02,18,14.20
2014,05,25,02,19,9.90
2014,05,25,02,20,8.10
2014,05,25,02,21,7.40
2014,05,25,02,22,11.50
2014,05,25,02,23,12.50
2014,05,25,02,24,12.40
2014,05,25,02,25,8.90
2014,05,25,02,26,9.70
2014,05,25,02,27,9.20
2014,05,25,02,28,10.90
2014,05,25,02,29,8.70
2014,05,25,02,30,4.70
2014,05,25,02,31,6.40
2014,05,25,02,32,5.80
2014,05,25,02,33,4.20
2014,05,25,02,34,6.30
2014,05,25,02,35,5.90
2014,05,25,02,36,5.70
2014,05,25,02,37,6.70
2014,05,25,02,38,9.50
2014,05,25,02,39,9.90
2014,05,25,02,40,10.20
2014,05,25,02,41,12.60
2014,05,25,02,42,12.90
2014,05,25,02,43,10.80
2014,05,25,02,44,8.00
2014,05,25,02,45,10.10
2014,05,25,02,46,9.70
2014,05,25,02,47,7.80
2014,05,25,02,48,10.40
2014,05,25,02,49,9.90
2014,05,25,02,50,5.60
2014,05,25,02,51,8.20
2014,05,25,02,52,6.70
2014,05,25,02,53,6.00
2014,05,25,02,54,7.70
2014,05,25,02,55,7.20
2014,05,25,02,56,5.60
2014,05,25,02,57,5.90
2014,05,25,02,58,5.60
2014,05,25,02,59,4.30
2014,05,25,03,00,4.40
2014,05,25,03,01,5.80
2014,05,25,03,02,5.40
2014,05,25,03,03,6.40
2014,05,25,03,04,6.40
2014,05,25,03,05,3.10
2014,05,25,03,06,4.00
2014,05,25,03,07,5.80
2014,05,25,03,08,6.10
2014,05,25,03,09,7.80
2014,05,25,03,10,8.60
2014,05,25,03,11,8.10
2014,05,25,03,12,8.80
2014,05,25,03,13,6.20
2014,05,25,03,14,6.40
2014,05,25,03,15,5.20
2014,05,25,03,16,5.70
2014,05,25,03,17,5.50
2014,05,25,03,18,4.10
2014,05,25,03,19,5.10
2014,05,25,03,20,6.20
2014,05,25,03,21,4.80
2014,05,25,03,22,7.40
2014,05,25,03,23,8.10
2014,05,25,03,24,7.10
2014,05,25,03,25,7.00
2014,05,25,03,26,6.50
2014,05,25,03,27,5.20
2014,05,25,03,28,4.20
2014,05,25,03,29,7.50
2014,05,25,03,30,8.10
2014,05,25,03,31,9.40
2014,05,25,03,32,10.20
2014,05,25,03,33,10.00
2014,05,25,03,34,9.30
2014,05,25,03,35,11.00
2014,05,25,03,36,13.50
2014,05,25,03,37,10.30
2014,05,25,03,38,10.00
2014,05,25,03,39,10.30
2014,05,25,03,40,13.40
2014,05,25,03,41,11.00
2014,05,25,03,42,12.90
2014,05,25,03,43,12.10
2014,05,25,03,44,12.90
2014,05,25,03,45,11.70
2014,05,25,03,46,10.00
2014,05,25,03,47,13.30
2014,05,25,03,48,9.80
2014,05,25,03,49,9.60
2014,05,25,03,50,8.10
2014,05,25,03,51,10.50
2014,05,25,03,52,7.30
2014,05,25,03,53,11.40
2014,05,25,03,54,5.80
2014,05,25,03,55,10.70
2014,05,25,03,56,9.70
2014,05,25,03,57,12.80
2014,05,25,03,58,13.40
2014,05,25,03,59,11.80
2014,05,25,04,00,9.70
2014,05,25,04,01,11.60
2014,05,25,04,02,14.50
2014,05,25,04,03,17.00
2014,05,25,04,04,12.30
2014,05,25,04,05,16.40
2014,05,25,04,06,12.90
2014,05,25,04,07,13.60
2014,05,25,04,08,10.30
2014,05,25,04,09,13.20
2014,05,25,04,10,12.80
2014,05,25,04,11,12.60
2014,05,25,04,12,12.90
2014,05,25,04,13,11.60
2014,05,25,04,14,8.50
2014,05,25,04,15,10.70
2014,05,25,04,16,6.90
2014,05,25,04,17,8.20
2014,05,25,04,18,9.20
2014,05,25,04,19,7.20
2014,05,25,04,20,9.70
2014,05,25,04,21,7.80
2014,05,25,04,22,3.50
2014,05,25,04,23,5.10
2014,05,25,04,24,8.40
2014,05,25,04,25,7.30
2014,05,25,04,26,6.70
2014,05,25,04,27,7.60
2014,05,25,04,28,7.10
2014,05,25,04,29,8.30
2014,05,25,04,30,10.30
2014,05,25,04,31,8.90
2014,05,25,04,32,11.40
2014,05,25,04,33,11.60
2014,05,25,04,34,10.60
2014,05,25,04,35,9.90
2014,05,25,04,36,6.10
2014,05,25,04,37,6.60
2014,05,25,04,38,6.00
2014,05,25,04,39,3.20
2014,05,25,04,40,5.30
2014,05,25,04,41,4.90
2014,05,25,04,42,6.10
2014,05,25,04,43,10.40
2014,05,25,04,44,9.20
2014,05,25,04,45,8.60
2014,05,25,04,46,7.10
2014,05,25,04,47,6.50
2014,05,25,04,48,5.40
2014,05,25,04,49,6.70
2014,05,25,04,50,7.30
2014,05,25,04,51,8.40
2014,05,25,04,52,7.40
2014,05,25,04,53,4.10
2014,05,25,04,54,5.90
2014,05,25,04,55,8.60
2014,05,25,04,56,5.00
2014,05,25,04,57,5.20
2014,05,25,04,58,4.20
2014,05,25,04,59,6.70
2014,05,25,05,00,4.80
2014,05,25,05,01,3.70
2014,05,25,05,02,2.60
2014,05,25,05,03,2.90
2014,05,25,05,04,6.10
2014,05,25,05,05,6.00
2014,05,25,05,06,2.30
2014,05,25,05,07,2.60
2014,05,25,05,08,4.00
2014,05,25,05,09,3.40
2014,05,25,05,10,6.30
2014,05,25,05,11,2.90
2014,05,25,05,12,2.10
2014,05,25,05,13,5.90
2014,05,25,05,14,3.30
2014,05,25,05,15,1.30
2014,05,25,05,16,4.70
2014,05,25,05,17,2.80
2014,05,25,05,18,2.30
2014,05,25,05,19,3.50
2014,05,25,05,20,2.30
2014,05,25,05,21,4.20
2014,05,25,05,22,4.30
2014,05,25,05,23,5.10
2014,05,25,05,24,4.40
2014,05,25,05,25,3.40
2014,05,25,05,26,5.80
2014,05,25,05,27,6.70
2014,05,25,05,28,6.00
2014,05,25,05,29,6.80
2014,05,25,05,30,7.50
2014,05,25,05,31,7.10
2014,05,25,05,32,9.80
2014,05,25,05,33,7.30
2014,05,25,05,34,6.10
2014,05,25,05,35,7.80
2014,05,25,05,36,7.60
2014,05,25,05,37,7.70
2014,05,25,05,38,8.10
2014,05,25,05,39,6.80
2014,05,25,05,40,8.10
2014,05,25,05,41,9.50
2014,05,25,05,42,8.80
2014,05,25,05,43,11.10
2014,05,25,05,44,9.50
2014,05,25,05,45,7.90
2014,05,25,05,46,9.50
2014,05,25,05,47,10.60
2014,05,25,05,48,8.40
2014,05,25,05,49,8.00
2014,05,25,05,50,8.50
2014,05,25,05,51,9.80
2014,05,25,05,52,9.80
2014,05,25,05,53,8.90
2014,05,25,05,54,9.10
2014,05,25,05,55,7.30
2014,05,25,05,56,9.20
2014,05,25,05,57,7.20
2014,05,25,05,58,7.50
2014,05,25,05,59,6.40
2014,05,25,06,00,5.30
2014,05,25,06,01,5.70
2014,05,25,06,02,8.40
2014,05,25,06,03,8.00
2014,05,25,06,04,9.30
2014,05,25,06,05,7.50
2014,05,25,06,06,6.20
2014,05,25,06,07,5.70
2014,05,25,06,08,6.90
2014,05,25,06,09,6.80
2014,05,25,06,10,3.90
2014,05,25,06,11,10.40
2014,05,25,06,12,8.10
2014,05,25,06,13,12.30
2014,05,25,06,14,7.60
2014,05,25,06,15,9.90
2014,05,25,06,16,6.70
2014,05,25,06,17,8.70
2014,05,25,06,18,7.90
2014,05,25,06,19,11.10
2014,05,25,06,20,9.00
2014,05,25,06,21,6.30
2014,05,25,06,22,7.10
2014,05,25,06,23,10.30
2014,05,25,06,24,8.90
2014,05,25,06,25,8.50
2014,05,25,06,26,8.70
2014,05,25,06,27,9.90
2014,05,25,06,28,9.00
2014,05,25,06,29,6.00
2014,05,25,06,30,8.60
2014,05,25,06,31,8.90
2014,05,25,06,32,7.00
2014,05,25,06,33,9.00
2014,05,25,06,34,8.00
2014,05,25,06,35,9.80
2014,05,25,06,36,8.20
2014,05,25,06,37,7.90
2014,05,25,06,38,7.00
2014,05,25,06,39,7.30
2014,05,25,06,40,7.80
2014,05,25,06,41,8.50
2014,05,25,06,42,6.00
2014,05,25,06,43,7.10
2014,05,25,06,44,6.50
2014,05,25,06,45,8.80
2014,05,25,06,46,7.30
2014,05,25,06,47,6.10
2014,05,25,06,48,6.60
2014,05,25,06,49,5.10
2014,05,25,06,50,6.80
2014,05,25,06,51,7.10
2014,05,25,06,52,7.20
2014,05,25,06,53,8.40
2014,05,25,06,54,8.60
2014,05,25,06,55,6.40
2014,05,25,06,56,9.40
2014,05,25,06,57,7.10
2014,05,25,06,58,8.30
2014,05,25,06,59,8.10
2014,05,25,07,00,8.30
2014,05,25,07,01,8.10
2014,05,25,07,02,8.40
2014,05,25,07,03,8.30
2014,05,25,07,04,10.00
2014,05,25,07,05,4.50
2014,05,25,07,06,6.10
2014,05,25,07,07,6.70
2014,05,25,07,08,9.70
2014,05,25,07,09,10.30
2014,05,25,07,10,9.40
2014,05,25,07,11,7.50
2014,05,25,07,12,9.90
2014,05,25,07,13,9.10
2014,05,25,07,14,8.70
2014,05,25,07,15,8.50
2014,05,25,07,16,8.60
2014,05,25,07,17,11.70
2014,05,25,07,18,10.30
2014,05,25,07,19,10.70
2014,05,25,07,20,8.10
2014,05,25,07,21,8.20
2014,05,25,07,22,9.00
2014,05,25,07,23,9.50
2014,05,25,07,24,9.00
2014,05,25,07,25,7.90
2014,05,25,07,26,8.00
2014,05,25,07,27,8.70
2014,05,25,07,28,8.70
2014,05,25,07,29,9.70
2014,05,25,07,30,8.80
2014,05,25,07,31,7.50
2014,05,25,07,32,8.90
2014,05,25,07,33,5.80
2014,05,25,07,34,8.00
2014,05,25,07,35,7.40
2014,05,25,07,36,5.60
2014,05,25,07,37,9.20
2014,05,25,07,38,6.10
2014,05,25,07,39,5.70
2014,05,25,07,40,7.90
2014,05,25,07,41,7.60
2014,05,25,07,42,8.70
2014,05,25,07,43,7.20
2014,05,25,07,44,7.30
2014,05,25,07,45,7.10
2014,05,25,07,46,4.90
2014,05,25,07,47,4.50
2014,05,25,07,48,5.10
2014,05,25,07,49,3.90
2014,05,25,07,50,6.80
2014,05,25,07,51,4.30
2014,05,25,07,52,5.90
2014,05,25,07,53,8.20
2014,05,25,07,54,4.10
2014,05,25,07,55,4.00
2014,05,25,07,56,8.70
2014,05,25,07,57,7.10
2014,05,25,07,58,8.30
2014,05,25,07,59,5.20
2014,05,25,08,00,7.70
2014,05,25,08,01,3.80
2014,05,25,08,02,5.30
2014,05,25,08,03,8.60
2014,05,25,08,04,9.40
2014,05,25,08,05,5.60
2014,05,25,08,06,9.30
2014,05,25,08,07,8.00
2014,05,25,08,08,6.40
2014,05,25,08,09,8.10
2014,05,25,08,10,10.10
2014,05,25,08,11,9.70
2014,05,25,08,12,12.00
2014,05,25,08,13,11.60
2014,05,25,08,14,6.80
2014,05,25,08,15,9.30
2014,05,25,08,16,2.70
2014,05,25,08,17,4.40
2014,05,25,08,18,2.80
2014,05,25,08,19,4.10
2014,05,25,08,20,4.10
2014,05,25,08,21,4.80
2014,05,25,08,22,9.80
2014,05,25,08,23,9.20
2014,05,25,08,24,5.60
2014,05,25,08,25,6.40
2014,05,25,08,26,13.90
2014,05,25,08,27,10.40
2014,05,25,08,28,12.40
2014,05,25,08,29,5.80
2014,05,25,08,30,7.80
2014,05,25,08,31,7.40
2014,05,25,08,32,6.20
2014,05,25,08,33,2.00
2014,05,25,08,34,5.40
2014,05,25,08,35,2.10
2014,05,25,08,36,3.00
2014,05,25,08,37,2.50
2014,05,25,08,38,1.60
2014,05,25,08,39,1.90
2014,05,25,08,40,5.60
2014,05,25,08,41,4.00
2014,05,25,08,42,4.10
2014,05,25,08,43,7.60
2014,05,25,08,44,8.00
2014,05,25,08,45,6.60
2014,05,25,08,46,7.60
2014,05,25,08,47,3.60
2014,05,25,08,48,2.60
2014,05,25,08,49,4.90
2014,05,25,08,50,8.30
2014,05,25,08,51,4.60
2014,05,25,08,52,4.40
2014,05,25,08,53,5.10
2014,05,25,08,54,5.20
2014,05,25,08,55,2.50
2014,05,25,08,56,3.70
2014,05,25,08,57,5.90
2014,05,25,08,58,3.40
2014,05,25,08,59,4.10
2014,05,25,09,00,5.10
2014,05,25,09,01,3.50
2014,05,25,09,02,3.80
2014,05,25,09,03,6.50
2014,05,25,09,04,5.20
2014,05,25,09,05,4.30
2014,05,25,09,06,6.40
2014,05,25,09,07,5.00
2014,05,25,09,08,4.30
2014,05,25,09,09,11.50
2014,05,25,09,10,10.60
2014,05,25,09,11,7.20
2014,05,25,09,12,7.00
2014,05,25,09,13,4.70
2014,05,25,09,14,6.40
2014,05,25,09,15,5.30
2014,05,25,09,16,3.00
2014,05,25,09,17,3.60
2014,05,25,09,18,5.40
2014,05,25,09,19,3.80
2014,05,25,09,20,4.40
2014,05,25,09,21,5.30
2014,05,25,09,22,2.30
2014,05,25,09,23,5.20
2014,05,25,09,24,1.20
2014,05,25,09,25,7.10
2014,05,25,09,26,4.40
2014,05,25,09,27,6.00
2014,05,25,09,28,3.20
2014,05,25,09,29,4.40
2014,05,25,09,30,5.90
2014,05,25,09,31,6.70
2014,05,25,09,32,4.50
2014,05,25,09,33,6.80
2014,05,25,09,34,3.00
2014,05,25,09,35,5.70
2014,05,25,09,36,5.90
2014,05,25,09,37,2.30
2014,05,25,09,38,2.00
2014,05,25,09,39,3.20
2014,05,25,09,40,3.80
2014,05,25,09,41,4.10
2014,05,25,09,42,2.40
2014,05,25,09,43,4.60
2014,05,25,09,44,6.00
2014,05,25,09,45,7.80
2014,05,25,09,46,5.20
2014,05,25,09,47,3.30
2014,05,25,09,48,3.50
2014,05,25,09,49,5.70
2014,05,25,09,50,7.90
2014,05,25,09,51,5.40
2014,05,25,09,52,5.20
2014,05,25,09,53,6.60
2014,05,25,09,54,1.40
2014,05,25,09,55,3.70
2014,05,25,09,56,4.70
2014,05,25,09,57,1.30
2014,05,25,09,58,3.90
2014,05,25,09,59,2.00
2014,05,25,10,00,2.20
2014,05,25,10,01,1.20
2014,05,25,10,02,4.90
2014,05,25,10,03,2.40
2014,05,25,10,04,6.70
2014,05,25,10,05,4.80
2014,05,25,10,06,4.00
2014,05,25,10,07,4.00
2014,05,25,10,08,6.90
2014,05,25,10,09,7.10
2014,05,25,10,10,4.80
2014,05,25,10,11,5.60
2014,05,25,10,12,0.90
2014,05,25,10,13,1.20
2014,05,25,10,14,0.60
2014,05,25,10,15,2.70
2014,05,25,10,16,2.70
2014,05,25,10,17,0.40
2014,05,25,10,18,0.00
2014,05,25,10,19,1.50
2014,05,25,10,20,1.20
2014,05,25,10,21,1.90
2014,05,25,10,22,0.10
2014,05,25,10,23,2.90
2014,05,25,10,24,3.60
2014,05,25,10,25,2.60
2014,05,25,10,26,1.70
2014,05,25,10,27,1.00
2014,05,25,10,28,3.90
2014,05,25,10,29,1.60
2014,05,25,10,30,2.20
2014,05,25,10,31,6.80
2014,05,25,10,32,6.30
2014,05,25,10,33,5.80
2014,05,25,10,34,6.40
2014,05,25,10,35,3.40
2014,05,25,10,36,5.20
2014,05,25,10,37,5.80
2014,05,25,10,38,5.50
2014,05,25,10,39,3.90
2014,05,25,10,40,8.00
2014,05,25,10,41,8.40
2014,05,25,10,42,6.80
2014,05,25,10,43,4.90
2014,05,25,10,44,2.50
2014,05,25,10,45,5.50
2014,05,25,10,46,0.40
2014,05,25,10,47,4.20
2014,05,25,10,48,2.70
2014,05,25,10,49,5.10
2014,05,25,10,50,6.30
2014,05,25,10,51,6.80
2014,05,25,10,52,8.70
2014,05,25,10,53,8.10
2014,05,25,10,54,10.50
2014,05,25,10,55,13.90
2014,05,25,10,56,14.80
2014,05,25,10,57,10.10
2014,05,25,10,58,7.80
2014,05,25,10,59,8.40
2014,05,25,11,00,4.50
2014,05,25,11,01,1.90
2014,05,25,11,02,3.60
2014,05,25,11,03,8.00
2014,05,25,11,04,4.30
2014,05,25,11,05,5.40
2014,05,25,11,06,6.00
2014,05,25,11,07,5.80
2014,05,25,11,08,8.70
2014,05,25,11,09,11.70
2014,05,25,11,10,10.30
2014,05,25,11,11,10.80
2014,05,25,11,12,9.70
2014,05,25,11,13,11.00
2014,05,25,11,14,8.60
2014,05,25,11,15,9.30
2014,05,25,11,16,7.80
2014,05,25,11,17,7.20
2014,05,25,11,18,8.40
2014,05,25,11,19,4.70
2014,05,25,11,20,6.30
2014,05,25,11,21,7.60
2014,05,25,11,22,5.00
2014,05,25,11,23,6.80
2014,05,25,11,24,7.30
2014,05,25,11,25,6.10
2014,05,25,11,26,6.90
2014,05,25,11,27,5.70
2014,05,25,11,28,4.10
2014,05,25,11,29,4.60
2014,05,25,11,30,5.60
2014,05,25,11,31,4.30
2014,05,25,11,32,1.00
2014,05,25,11,33,2.80
2014,05,25,11,34,3.30
2014,05,25,11,35,2.90
2014,05,25,11,36,5.10
2014,05,25,11,37,4.50
2014,05,25,11,38,3.60
2014,05,25,11,39,4.50
2014,05,25,11,40,1.20
2014,05,25,11,41,1.00
2014,05,25,11,42,4.50
2014,05,25,11,43,2.10
2014,05,25,11,44,1.60
2014,05,25,11,45,5.30
2014,05,25,11,46,4.30
2014,05,25,11,47,6.10
2014,05,25,11,48,6.40
2014,05,25,11,49,5.30
2014,05,25,11,50,7.80
2014,05,25,11,51,6.40
2014,05,25,11,52,6.80
2014,05,25,11,53,6.80
2014,05,25,11,54,5.60
2014,05,25,11,55,3.20
2014,05,25,11,56,5.20
2014,05,25,11,57,6.30
2014,05,25,11,58,5.20
2014,05,25,11,59,2.10
2014,05,25,12,00,5.00
2014,05,25,12,01,5.30
2014,05,25,12,02,4.80
2014,05,25,12,03,5.40
2014,05,25,12,04,4.80
2014,05,25,12,05,5.60
2014,05,25,12,06,4.70
2014,05,25,12,07,5.50
2014,05,25,12,08,5.60
2014,05,25,12,09,4.10
2014,05,25,12,10,1.90
2014,05,25,12,11,3.50
2014,05,25,12,12,2.50
2014,05,25,12,13,1.00
2014,05,25,12,14,0.00
2014,05,25,12,15,0.40
2014,05,25,12,16,0.40
2014,05,25,12,17,0.60
2014,05,25,12,18,1.80
2014,05,25,12,19,2.00
2014,05,25,12,20,2.10
2014,05,25,12,21,3.00
2014,05,25,12,22,2.50
2014,05,25,12,23,2.80
2014,05,25,12,24,3.60
2014,05,25,12,25,2.90
2014,05,25,12,26,3.90
2014,05,25,12,27,4.70
2014,05,25,12,28,5.50
2014,05,25,12,29,3.20
2014,05,25,12,30,3.40
2014,05,25,12,31,1.40
2014,05,25,12,32,3.90
2014,05,25,12,33,4.60
2014,05,25,12,34,2.80
2014,05,25,12,35,3.90
2014,05,25,12,36,4.70
2014,05,25,12,37,5.10
2014,05,25,12,38,2.70
2014,05,25,12,39,1.80
2014,05,25,12,40,1.50
2014,05,25,12,41,2.30
2014,05,25,12,42,0.70
2014,05,25,12,43,2.20
2014,05,25,12,44,0.80
2014,05,25,12,45,1.20
2014,05,25,12,46,0.80
2014,05,25,12,47,2.50
2014,05,25,12,48,1.80
2014,05,25,12,49,2.60
2014,05,25,12,50,5.50
2014,05,25,12,51,3.30
2014,05,25,12,52,3.30
2014,05,25,12,53,4.30
2014,05,25,12,54,3.20
2014,05,25,12,55,3.00
2014,05,25,12,56,5.50
2014,05,25,12,57,2.70
2014,05,25,12,58,2.00
2014,05,25,12,59,2.90
2014,05,25,13,00,4.90
2014,05,25,13,01,5.60
2014,05,25,13,02,3.70
2014,05,25,13,03,0.50
2014,05,25,13,04,2.00
2014,05,25,13,05,0.80
2014,05,25,13,06,6.00
2014,05,25,13,07,6.80
2014,05,25,13,08,1.20
2014,05,25,13,09,5.10
2014,05,25,13,10,4.30
2014,05,25,13,11,5.80
2014,05,25,13,12,1.20
2014,05,25,13,13,4.40
2014,05,25,13,14,6.10
2014,05,25,13,15,6.40
2014,05,25,13,16,5.60
2014,05,25,13,17,5.20
2014,05,25,13,18,3.10
2014,05,25,13,19,5.40
2014,05,25,13,20,8.30
2014,05,25,13,21,5.90
2014,05,25,13,22,4.70
2014,05,25,13,23,5.80
2014,05,25,13,24,2.80
2014,05,25,13,25,3.60
2014,05,25,13,26,4.20
2014,05,25,13,27,4.70
2014,05,25,13,28,7.10
2014,05,25,13,29,6.00
2014,05,25,13,30,5.10
2014,05,25,13,31,7.20
2014,05,25,13,32,7.40
2014,05,25,13,33,6.40
2014,05,25,13,34,6.70
2014,05,25,13,35,5.70
2014,05,25,13,36,7.40
2014,05,25,13,37,7.40
2014,05,25,13,38,6.70
2014,05,25,13,39,6.70
2014,05,25,13,40,7.80
2014,05,25,13,41,7.60
2014,05,25,13,42,5.30
2014,05,25,13,43,3.80
2014,05,25,13,44,5.90
2014,05,25,13,45,5.40
2014,05,25,13,46,5.70
2014,05,25,13,47,6.30
2014,05,25,13,48,7.50
2014,05,25,13,49,7.20
2014,05,25,13,50,8.20
2014,05,25,13,51,6.40
2014,05,25,13,52,4.00
2014,05,25,13,53,5.10
2014,05,25,13,54,4.20
2014,05,25,13,55,3.80
2014,05,25,13,56,2.40
2014,05,25,13,57,3.70
2014,05,25,13,58,1.90
2014,05,25,13,59,3.80
2014,05,25,14,00,4.60
2014,05,25,14,01,4.60
2014,05,25,14,02,3.80
2014,05,25,14,03,6.40
2014,05,25,14,04,8.00
2014,05,25,14,05,9.80
2014,05,25,14,06,11.70
2014,05,25,14,07,10.00
2014,05,25,14,08,8.00
2014,05,25,14,09,6.50
2014,05,25,14,10,11.70
2014,05,25,14,11,7.60
2014,05,25,14,12,7.20
2014,05,25,14,13,3.10
2014,05,25,14,14,5.50
2014,05,25,14,15,6.10
2014,05,25,14,16,8.30
2014,05,25,14,17,9.60
2014,05,25,14,18,10.40
2014,05,25,14,19,9.10
2014,05,25,14,20,10.20
2014,05,25,14,21,9.00
2014,05,25,14,22,6.30
2014,05,25,14,23,9.70
2014,05,25,14,24,10.60
2014,05,25,14,25,8.40
2014,05,25,14,26,8.90
2014,05,25,14,27,9.00
2014,05,25,14,28,8.70
2014,05,25,14,29,7.70
2014,05,25,14,30,8.00
2014,05,25,14,31,4.70
2014,05,25,14,32,5.70
2014,05,25,14,33,9.60
2014,05,25,14,34,6.40
2014,05,25,14,35,7.00
2014,05,25,14,36,5.20
2014,05,25,14,37,5.30
2014,05,25,14,38,7.40
2014,05,25,14,39,4.60
2014,05,25,14,40,2.80
2014,05,25,14,41,3.30
2014,05,25,14,42,3.90
2014,05,25,14,43,1.40
2014,05,25,14,44,2.80
2014,05,25,14,45,6.80
2014,05,25,14,46,3.10
2014,05,25,14,47,5.00
2014,05,25,14,48,7.70
2014,05,25,14,49,10.70
2014,05,25,14,50,5.90
2014,05,25,14,51,4.60
2014,05,25,14,52,4.50
2014,05,25,14,53,3.90
2014,05,25,14,54,1.90
2014,05,25,14,55,7.40
2014,05,25,14,56,2.70
2014,05,25,14,57,2.60
2014,05,25,14,58,4.70
2014,05,25,14,59,5.20
2014,05,25,15,00,2.80
2014,05,25,15,01,4.30
2014,05,25,15,02,4.40
2014,05,25,15,03,2.20
2014,05,25,15,04,3.10
2014,05,25,15,05,6.80
2014,05,25,15,06,2.50
2014,05,25,15,07,4.70
2014,05,25,15,08,3.50
2014,05,25,15,09,3.70
2014,05,25,15,10,5.70
2014,05,25,15,11,4.30
2014,05,25,15,12,2.50
2014,05,25,15,13,0.00
2014,05,25,15,14,0.00
2014,05,25,15,15,0.00
2014,05,25,15,16,0.00
2014,05,25,15,17,0.00
2014,05,25,15,18,0.00
2014,05,25,15,19,0.00
2014,05,25,15,20,0.00
2014,05,25,15,21,0.00
2014,05,25,15,22,0.00
2014,05,25,15,23,0.00
2014,05,25,15,24,0.00
2014,05,25,15,25,0.00
2014,05,25,15,26,0.00
2014,05,25,15,27,0.00
2014,05,25,15,28,0.00
2014,05,25,15,29,0.00
2014,05,25,15,30,0.00
2014,05,25,15,31,0.00
2014,05,25,15,32,0.00
2014,05,25,15,33,0.00
2014,05,25,15,34,0.00
2014,05,25,15,35,0.00
2014,05,25,15,36,0.00
2014,05,25,15,37,0.00
2014,05,25,15,38,0.00
2014,05,25,15,39,0.00
2014,05,25,15,40,0.00
2014,05,25,15,41,0.00
2014,05,25,15,42,0.00
2014,05,25,15,43,0.00
2014,05,25,15,44,0.00
2014,05,25,15,45,0.00
2014,05,25,15,46,0.00
2014,05,25,15,47,0.00
2014,05,25,15,48,0.00
2014,05,25,15,49,0.00
2014,05,25,15,50,0.00
2014,05,25,15,51,0.00
2014,05,25,15,52,0.00
2014,05,25,15,53,0.00
2014,05,25,15,54,0.00
2014,05,25,15,55,0.00
2014,05,25,15,56,0.00
2014,05,25,15,57,0.00
2014,05,25,15,58,0.00
2014,05,25,15,59,0.00
2014,05,25,16,00,0.00
2014,05,25,16,01,0.00
2014,05,25,16,02,0.00
2014,05,25,16,03,0.00
2014,05,25,16,04,0.00
2014,05,25,16,05,0.00
2014,05,25,16,06,0.00
2014,05,25,16,07,0.00
2014,05,25,16,08,0.00
2014,05,25,16,09,0.00
2014,05,25,16,10,0.00
2014,05,25,16,11,0.00
2014,05,25,16,12,0.00
2014,05,25,16,13,0.00
2014,05,25,16,14,0.00
2014,05,25,16,15,0.00
2014,05,25,16,16,0.00
2014,05,25,16,17,0.00
2014,05,25,16,18,0.00
2014,05,25,16,19,0.00
2014,05,25,16,20,0.00
2014,05,25,16,21,0.00
2014,05,25,16,22,0.00
2014,05,25,16,23,0.00
2014,05,25,16,24,0.00
2014,05,25,16,25,0.00
2014,05,25,16,26,0.00
2014,05,25,16,27,0.00
2014,05,25,16,28,0.00
2014,05,25,16,29,0.00
2014,05,25,16,30,0.00
2014,05,25,16,31,0.00
2014,05,25,16,32,0.00
2014,05,25,16,33,0.00
2014,05,25,16,34,0.00
2014,05,25,16,35,0.00
2014,05,25,16,36,0.00
2014,05,25,16,37,0.00
2014,05,25,16,38,0.00
2014,05,25,16,39,0.00
2014,05,25,16,40,0.00
2014,05,25,16,41,0.00
2014,05,25,16,42,0.00
2014,05,25,16,43,0.00
2014,05,25,16,44,0.00
2014,05,25,16,45,0.00
2014,05,25,16,46,0.00
2014,05,25,16,47,0.00
2014,05,25,16,48,0.00
2014,05,25,16,49,0.00
2014,05,25,16,50,0.00
2014,05,25,16,51,0.00
2014,05,25,16,52,0.00
2014,05,25,16,53,0.00
2014,05,25,16,54,0.00
2014,05,25,16,55,0.00
2014,05,25,16,56,0.00
2014,05,25,16,57,0.00
2014,05,25,16,58,0.00
2014,05,25,16,59,0.00
2014,05,25,17,00,0.00
2014,05,25,17,01,0.00
2014,05,25,17,02,0.00
2014,05,25,17,03,0.00
2014,05,25,17,04,0.00
2014,05,25,17,05,0.00
2014,05,25,17,06,0.00
2014,05,25,17,07,0.00
2014,05,25,17,08,0.00
2014,05,25,17,09,0.00
2014,05,25,17,10,0.00
2014,05,25,17,11,0.00
2014,05,25,17,12,0.00
2014,05,25,17,13,0.00
2014,05,25,17,14,0.00
2014,05,25,17,15,0.00
2014,05,25,17,16,0.00
2014,05,25,17,17,0.00
2014,05,25,17,18,0.00
2014,05,25,17,19,0.00
2014,05,25,17,20,0.00
2014,05,25,17,21,0.00
2014,05,25,17,22,0.00
2014,05,25,17,23,0.00
2014,05,25,17,24,0.00
2014,05,25,17,25,0.00
2014,05,25,17,26,0.00
2014,05,25,17,27,0.00
2014,05,25,17,28,0.00
2014,05,25,17,29,0.00
2014,05,25,17,30,0.00
2014,05,25,17,31,0.00
2014,05,25,17,32,0.00
2014,05,25,17,33,0.00
2014,05,25,17,34,0.00
2014,05,25,17,35,0.00
2014,05,25,17,36,0.00
2014,05,25,17,37,0.00
2014,05,25,17,38,0.00
2014,05,25,17,39,0.00
2014,05,25,17,40,0.00
2014,05,25,17,41,0.00
2014,05,25,17,42,0.00
2014,05,25,17,43,0.00
2014,05,25,17,44,0.00
2014,05,25,17,45,0.00
2014,05,25,17,46,0.00
2014,05,25,17,47,0.00
2014,05,25,17,48,0.00
2014,05,25,17,49,0.00
2014,05,25,17,50,0.00
2014,05,25,17,51,0.00
2014,05,25,17,52,0.00
2014,05,25,17,53,0.00
2014,05,25,17,54,0.00
2014,05,25,17,55,0.00
2014,05,25,17,56,0.00
2014,05,25,17,57,0.00
2014,05,25,17,58,0.00
2014,05,25,17,59,0.00
2014,05,25,18,00,0.00
2014,05,25,18,01,0.00